Wind_Speed
25 24 25 25 24 23 25 25 25 25 25 24 24 24 25 26 26 25 25 25 25 27 27 25 25 26 26 26 25 24 24 23 23 22 21 21 22 22 22 21 21 21 20 21
27 26 25 26 25 24 24 25 25 24 26 28 27 27 28 28 26 25 25 26 26 26 27 26 26 26 26 26 26 26 25 24 24 23 23 22 23 23 23 23 22 22 22 22
26 26 27 27 26 26 26 25 25 25 25 26 29 30 29 28 26 26 26 26 27 27 27 27 27 27 27 27 27 26 26 25 25 24 24 24 24 24 24 23 23 23 23 23
24 25 26 25 24 25 24 24 26 27 26 25 27 28 27 26 26 26 27 28 28 28 27 27 27 27 27 27 27 26 26 25 25 25 25 24 24 24 24 24 23 24 23 23
24 24 23 21 22 22 23 24 26 27 26 25 26 26 26 27 26 26 27 27 28 27 26 26 26 27 26 27 27 27 26 26 25 24 24 23 23 23 23 22 23 24 24 24
24 24 23 23 22 22 24 26 27 27 27 25 26 27 27 27 27 27 27 27 27 27 27 27 26 26 27 27 27 27 27 26 26 26 25 25 24 24 24 24 24 25 25 25
23 24 24 24 23 23 25 27 27 27 26 26 27 27 26 25 26 27 27 27 27 27 28 27 26 27 28 28 27 27 27 27 28 28 27 26 26 26 26 26 26 27 26 26
23 23 24 24 23 24 25 25 26 27 26 26 27 28 26 26 26 26 27 27 27 27 28 28 28 27 28 28 28 28 28 28 27 27 27 27 27 27 27 27 27 28 28 27
24 23 22 23 23 24 25 26 25 24 25 27 28 27 28 28 28 27 28 27 27 28 28 28 28 28 28 28 28 29 28 28 27 27 28 28 28 29 29 29 29 29 29 28
23 22 23 24 23 24 25 26 26 25 26 27 26 27 27 27 28 28 28 27 27 28 28 28 28 28 28 28 28 29 29 29 28 28 29 29 29 30 30 30 30 30 30 30
23 24 23 25 26 24 25 27 26 27 27 26 25 25 26 27 28 28 28 28 27 28 28 28 28 28 28 28 29 29 29 29 29 29 29 29 30 30 31 30 30 30 30 31
20 20 21 23 25 26 25 26 27 26 26 27 27 27 27 27 28 28 28 28 29 29 28 28 28 28 28 28 29 29 29 29 29 29 29 30 30 31 30 31 31 31 31 31
20 21 22 23 25 26 25 26 26 26 26 26 26 26 27 28 28 28 28 28 29 28 28 28 28 28 28 29 29 29 30 29 29 30 30 31 31 31 31 31 31 31 31 31
21 21 22 23 24 25 26 26 27 27 27 26 25 25 26 27 28 28 28 28 28 28 28 27 28 28 28 29 29 30 30 31 31 31 32 32 32 32 32 32 32 32 32 32
22 22 22 23 23 23 24 25 25 26 26 26 26 26 26 27 27 28 28 27 27 27 27 27 27 28 28 29 29 30 31 31 32 32 33 33 33 33 33 33 33 33 33 32
20 21 22 22 22 23 23 24 24 25 25 25 25 25 26 26 26 27 26 26 26 26 26 27 27 28 28 29 29 30 31 31 31 32 32 32 33 33 33 33 33 33 33 32
18 19 20 21 21 22 23 23 24 25 25 25 25 25 26 26 26 25 25 25 25 26 26 27 28 28 28 28 29 31 31 31 31 31 32 33 33 33 33 33 33 32 32 31
18 18 18 20 21 21 22 23 23 24 24 24 25 25 25 25 24 24 24 24 25 25 25 26 26 27 27 27 28 29 30 30 30 31 32 32 33 33 33 32 32 31 31 30
19 19 19 19 20 20 21 21 22 23 23 24 24 24 25 24 24 24 24 25 24 24 25 24 25 27 27 27 28 28 29 30 30 31 31 31 31 30 30 30 30 30 29 28
19 19 19 19 20 21 22 22 22 22 22 22 23 23 23 23 23 24 24 24 24 24 24 24 25 26 27 27 27 27 27 27 27 27 27 28 28 29 29 29 29 28 27 26
18 19 19 20 20 20 20 21 21 21 21 21 21 21 21 22 22 22 22 23 23 23 24 24 24 24 24 25 26 26 26 26 25 25 25 26 26 27 28 28 28 28 28 26
19 19 19 19 19 19 19 19 19 20 20 20 20 20 20 21 21 21 21 22 22 22 22 22 22 22 22 24 24 24 24 24 24 24 25 25 26 27 27 27 27 28 27 26
18 18 18 18 18 18 18 18 18 19 19 19 18 18 19 19 19 20 21 21 21 21 21 21 21 21 22 23 23 23 23 23 24 24 24 25 25 25 24 25 24 25 25 24
17 17 16 16 17 17 17 16 17 17 18 18 18 18 18 18 18 19 20 20 20 20 20 21 21 21 22 22 22 23 23 23 22 23 23 22 23 23 23 22 22 22 22 23
16 16 16 16 16 16 16 16 16 16 16 16 16 16 16 16 17 17 18 19 19 19 19 20 20 20 21 21 21 21 21 21 21 22 21 21 21 21 21 21 22 22 23 23
14 14 14 14 14 14 14 14 15 14 15 16 16 16 16 16 16 17 17 17 18 18 18 19 19 20 20 20 21 21 21 21 21 21 21 21 21 20 21 21 22 22 22 23
14 14 13 13 13 13 13 14 13 14 14 15 15 15 16 16 15 15 16 17 17 17 17 17 18 19 19 19 20 20 20 20 21 20 20 20 20 20 20 20 21 21 21 21
Wind_Direction
244 242 244 246 248 246 246 243 244 248 250 252 256 257 258 259 259 256 256 255 257 258 259 258 258 261 263 263 264 266 268 269 269 270 273 275 277 280 281 280 278 280 281 283
247 245 244 244 246 248 249 246 246 248 251 253 260 258 259 259 257 258 258 257 258 261 260 259 259 262 262 263 263 264 265 268 269 270 270 272 275 277 278 278 278 279 280 281
249 250 247 244 244 250 254 252 246 245 249 254 258 258 259 260 258 259 261 259 260 261 261 260 260 260 261 261 262 265 264 267 267 270 269 271 273 275 277 277 278 279 280 282
250 251 247 245 246 248 247 249 247 247 247 251 255 257 257 257 259 260 260 261 260 259 261 260 259 258 260 261 262 261 260 264 266 269 269 269 271 274 276 277 279 280 280 282
250 251 250 246 244 244 246 247 246 248 250 253 257 260 258 257 259 260 260 260 260 260 260 259 258 257 258 260 261 262 265 268 271 271 270 272 272 273 276 279 281 282 282 283
250 251 248 247 243 242 246 249 247 249 253 253 254 258 259 259 260 261 262 261 260 260 258 258 257 256 257 260 262 264 267 268 271 272 273 274 274 276 277 279 280 282 282 284
248 249 251 247 243 243 245 247 247 249 252 255 257 259 260 260 261 261 262 261 260 260 260 259 258 257 259 260 262 264 266 267 268 270 271 273 275 276 277 279 280 281 283 286
250 249 251 246 243 243 246 249 251 251 253 256 258 260 261 260 260 261 262 260 259 259 259 261 261 260 260 261 262 264 265 267 267 268 270 271 272 274 276 278 279 280 282 286
251 250 251 247 244 246 247 249 254 254 253 256 259 260 260 262 262 262 262 261 260 260 259 259 260 260 262 264 264 264 264 265 267 269 270 271 271 274 275 277 279 281 282 284
251 253 248 248 246 245 248 249 253 256 256 256 258 258 261 261 262 261 263 264 263 262 260 260 260 261 262 263 265 265 265 266 266 269 271 272 272 274 275 276 279 282 283 284
252 254 250 248 248 251 250 250 254 258 257 258 262 260 261 263 263 263 264 267 267 266 263 261 261 261 262 263 264 265 265 266 267 268 269 271 273 275 277 278 281 282 282 283
250 251 251 251 253 256 256 255 257 259 260 260 262 261 262 264 265 265 266 268 268 266 265 264 262 261 261 262 263 264 266 266 267 268 270 271 273 274 276 278 281 283 284 284
259 259 259 256 256 257 257 257 258 260 261 261 263 262 261 263 265 267 268 269 267 265 264 263 262 261 261 262 263 264 265 267 268 268 269 270 272 274 275 277 280 282 283 284
262 261 259 259 258 256 256 256 258 259 259 262 264 265 264 264 265 267 268 268 266 265 264 263 263 262 262 263 264 265 266 267 268 269 270 271 272 273 275 277 279 280 281 283
263 262 261 262 260 258 256 257 258 259 260 262 264 265 266 265 265 267 267 266 263 262 263 265 265 264 264 264 265 266 267 267 268 269 271 271 272 274 275 276 278 279 280 282
264 263 262 262 260 259 259 260 261 262 262 262 264 264 265 265 266 266 265 264 263 263 264 267 267 266 265 265 266 266 267 267 268 269 271 271 273 274 275 276 277 279 280 282
269 268 264 261 261 262 261 262 263 264 265 265 266 267 267 268 267 267 265 265 267 267 267 267 267 266 265 266 267 268 269 269 270 270 272 273 273 274 274 274 276 278 280 281
272 271 267 263 262 263 263 264 264 264 266 266 268 268 268 268 268 266 264 266 268 268 268 270 269 268 266 267 268 268 269 270 271 272 273 273 273 273 272 273 275 278 280 280
272 272 269 268 264 264 266 266 266 267 269 269 268 268 268 267 268 267 265 266 267 267 268 270 269 270 271 271 270 270 270 271 272 273 272 271 273 273 273 273 274 276 278 278
275 275 274 273 269 267 268 267 268 270 270 271 271 270 269 268 268 266 265 266 266 269 272 271 270 271 271 272 271 272 273 273 274 273 271 271 272 272 274 274 274 275 276 275
278 279 277 275 272 269 269 269 271 271 271 271 271 272 271 269 268 266 264 266 268 270 273 273 272 272 271 272 273 274 274 274 275 275 274 274 275 274 274 273 272 272 274 274
282 283 281 277 274 273 272 271 271 271 272 273 273 273 273 272 270 268 267 268 270 272 273 274 274 274 273 273 274 274 274 274 275 276 277 276 274 274 273 273 273 273 274 273
282 283 282 279 277 275 274 275 274 273 275 275 275 275 276 276 274 272 271 271 272 272 272 273 274 275 276 277 277 276 275 276 276 276 278 279 277 276 275 274 273 272 273 273
280 282 281 278 277 276 276 276 276 277 278 275 275 276 276 276 277 275 274 275 276 275 274 274 274 275 276 278 278 276 274 274 276 277 281 281 280 278 275 274 274 274 273 273
279 280 281 281 281 279 278 277 276 277 278 277 277 277 277 276 278 279 278 277 277 278 276 275 276 276 276 277 277 276 275 276 278 280 282 282 281 279 276 273 274 274 275 275
281 282 283 281 280 278 278 279 280 280 280 282 283 281 278 278 279 282 282 281 281 281 279 277 276 277 278 278 277 279 280 279 280 280 280 281 281 279 278 276 275 275 275 277
281 282 281 281 282 282 283 285 286 286 287 287 287 284 282 284 284 285 285 283 283 282 280 279 277 278 278 278 279 280 281 281 281 282 283 284 285 283 281 279 278 276 274 275
Height
5790 5792 5794 5795 5796 5798 5799 5801 5803 5805 5807 5807 5806 5807 5807 5809 5810 5811 5812 5813 5815 5815 5816 5817 5818 5818 5819 5820 5820 5821 5821 5822 5822 5823 5823 5824 5824 5824 5824 5824 5824 5823 5823 5823
5782 5784 5786 5788 5789 5791 5793 5794 5796 5798 5800 5799 5799 5800 5801 5802 5803 5804 5805 5807 5808 5809 5810 5811 5812 5813 5813 5814 5814 5815 5815 5816 5817 5817 5818 5818 5818 5819 5819 5818 5818 5818 5818 5817
5775 5777 5777 5779 5784 5785 5786 5787 5789 5790 5792 5793 5793 5794 5795 5795 5796 5798 5799 5800 5802 5802 5803 5804 5805 5806 5807 5807 5808 5808 5809 5810 5810 5811 5812 5812 5812 5813 5813 5812 5812 5812 5812 5811
5768 5770 5770 5776 5777 5778 5779 5780 5781 5783 5785 5785 5786 5787 5788 5789 5790 5791 5793 5794 5794 5795 5796 5797 5798 5799 5800 5801 5801 5801 5801 5803 5804 5805 5805 5806 5806 5806 5807 5807 5806 5806 5805 5805
5762 5762 5765 5768 5770 5771 5772 5773 5775 5776 5777 5778 5779 5780 5782 5782 5783 5784 5786 5786 5787 5788 5789 5790 5791 5792 5793 5794 5795 5794 5796 5797 5798 5799 5799 5799 5800 5800 5800 5800 5800 5800 5799 5799
5755 5756 5758 5762 5763 5764 5767 5766 5768 5769 5770 5771 5773 5774 5775 5776 5777 5778 5778 5780 5780 5781 5782 5783 5784 5786 5786 5787 5788 5789 5790 5791 5792 5793 5793 5793 5793 5794 5794 5794 5794 5793 5793 5792
5749 5750 5751 5754 5755 5757 5760 5760 5761 5762 5764 5765 5766 5767 5768 5768 5770 5771 5772 5772 5773 5774 5775 5776 5777 5778 5780 5781 5782 5783 5783 5784 5785 5786 5786 5787 5787 5787 5787 5787 5787 5787 5786 5785
5743 5744 5746 5746 5748 5751 5752 5753 5754 5756 5757 5758 5759 5759 5760 5762 5763 5764 5764 5765 5766 5767 5768 5769 5770 5771 5772 5774 5775 5776 5776 5777 5778 5779 5779 5780 5780 5780 5780 5780 5780 5779 5779 5778
5738 5739 5739 5740 5742 5743 5745 5747 5747 5749 5750 5751 5752 5753 5754 5755 5757 5758 5758 5758 5759 5760 5761 5762 5763 5764 5765 5766 5767 5768 5769 5770 5771 5771 5772 5772 5773 5773 5773 5773 5772 5772 5771 5771
5731 5731 5732 5734 5735 5737 5738 5740 5741 5743 5744 5744 5745 5746 5747 5748 5749 5750 5750 5751 5751 5752 5753 5754 5755 5756 5757 5758 5759 5761 5762 5763 5763 5764 5764 5765 5765 5765 5765 5765 5765 5764 5764 5763
5726 5726 5727 5728 5729 5730 5732 5734 5735 5736 5736 5737 5738 5739 5740 5741 5741 5742 5743 5742 5743 5744 5745 5746 5747 5748 5749 5751 5752 5753 5754 5754 5755 5756 5756 5757 5757 5757 5757 5757 5757 5756 5756 5755
5721 5720 5721 5722 5723 5724 5726 5727 5728 5728 5729 5731 5732 5733 5733 5733 5734 5734 5735 5735 5736 5736 5737 5738 5739 5740 5741 5743 5744 5744 5745 5746 5747 5748 5748 5749 5749 5749 5749 5749 5748 5748 5747 5746
5715 5715 5715 5716 5717 5717 5718 5720 5721 5721 5722 5724 5724 5725 5726 5726 5726 5727 5727 5727 5728 5728 5729 5730 5731 5732 5733 5734 5735 5736 5737 5738 5739 5739 5740 5740 5741 5741 5741 5741 5740 5740 5739 5738
5710 5710 5710 5710 5711 5711 5712 5713 5714 5715 5716 5717 5717 5718 5718 5718 5719 5719 5719 5719 5720 5720 5721 5722 5723 5724 5725 5725 5727 5727 5728 5729 5730 5730 5731 5731 5732 5732 5731 5731 5731 5731 5730 5729
5704 5704 5704 5704 5704 5704 5705 5706 5707 5708 5709 5710 5710 5711 5711 5711 5711 5711 5711 5712 5712 5712 5713 5714 5715 5715 5716 5717 5718 5719 5719 5720 5721 5721 5722 5722 5722 5722 5722 5722 5722 5721 5721 5720
5698 5698 5698 5698 5698 5699 5699 5700 5700 5701 5702 5703 5703 5703 5703 5703 5703 5703 5703 5704 5704 5705 5706 5707 5707 5708 5708 5709 5709 5710 5710 5711 5711 5712 5712 5712 5712 5712 5712 5712 5712 5712 5711 5710
5692 5692 5692 5692 5692 5693 5693 5694 5694 5694 5695 5695 5696 5696 5696 5696 5696 5696 5696 5697 5697 5698 5698 5699 5699 5699 5700 5700 5701 5701 5701 5702 5702 5703 5703 5703 5703 5703 5703 5703 5703 5702 5702 5700
5687 5686 5686 5686 5686 5687 5687 5687 5687 5688 5688 5688 5689 5688 5689 5689 5689 5689 5689 5690 5690 5691 5691 5691 5691 5691 5692 5692 5692 5692 5693 5693 5694 5694 5694 5693 5693 5693 5693 5693 5693 5693 5692 5691
5681 5681 5681 5680 5680 5680 5680 5681 5681 5681 5681 5682 5682 5682 5682 5682 5682 5682 5683 5683 5683 5684 5684 5683 5683 5683 5684 5684 5684 5684 5685 5685 5685 5685 5685 5684 5685 5684 5684 5684 5684 5683 5683 5682
5676 5676 5675 5674 5674 5674 5674 5674 5675 5675 5675 5675 5675 5675 5675 5675 5676 5676 5676 5676 5676 5676 5676 5675 5676 5676 5676 5676 5676 5676 5677 5677 5676 5676 5676 5676 5676 5675 5675 5675 5675 5675 5674 5674
5671 5670 5669 5669 5668 5668 5668 5668 5669 5669 5669 5669 5669 5669 5669 5669 5669 5669 5669 5670 5670 5669 5669 5668 5668 5668 5668 5669 5669 5669 5669 5669 5668 5668 5668 5668 5667 5667 5666 5666 5666 5666 5666 5666
5665 5665 5664 5663 5662 5662 5662 5662 5663 5663 5663 5663 5663 5663 5663 5662 5662 5662 5663 5663 5663 5663 5662 5662 5661 5662 5662 5661 5661 5661 5661 5661 5661 5660 5660 5659 5659 5658 5658 5658 5657 5657 5657 5657
5660 5659 5658 5658 5657 5657 5657 5657 5657 5657 5657 5657 5657 5657 5657 5656 5656 5656 5656 5656 5656 5656 5655 5655 5655 5655 5655 5654 5654 5654 5654 5654 5653 5653 5652 5651 5650 5650 5649 5649 5649 5649 5649 5649
5655 5655 5654 5653 5652 5652 5652 5652 5652 5652 5652 5652 5652 5651 5651 5651 5650 5650 5650 5650 5650 5649 5649 5649 5649 5649 5648 5648 5647 5647 5647 5647 5646 5645 5644 5643 5642 5642 5641 5641 5641 5642 5641 5641
5650 5650 5649 5648 5648 5648 5648 5648 5647 5647 5647 5646 5646 5646 5645 5645 5645 5644 5644 5644 5644 5643 5643 5643 5642 5642 5641 5641 5640 5640 5640 5639 5638 5638 5637 5636 5635 5635 5634 5634 5634 5634 5634 5634
5646 5645 5645 5644 5644 5643 5643 5643 5643 5642 5642 5642 5641 5640 5640 5640 5639 5639 5638 5638 5638 5637 5637 5636 5636 5636 5635 5634 5634 5633 5632 5632 5631 5630 5629 5629 5628 5628 5627 5627 5627 5627 5626 5626
5642 5641 5641 5640 5640 5640 5639 5639 5638 5638 5637 5637 5636 5636 5635 5634 5634 5633 5633 5632 5632 5631 5631 5630 5630 5629 5629 5628 5627 5627 5626 5625 5624 5623 5622 5622 5621 5620 5620 5620 5620 5619 5619 5619